Regional Weather Roundup
Issued by NWS Upton, NY

Current Version | Previous Version | Text Only | Print | Product List | Glossary On
Versions: 1 2 3 4 5 6 7 8 9 10 11 12 13 14 15 16 17 18 19 20 21 22 23 24 25 26 27 28 29 30 31 32 33 34 35 36 37 38 39 40 41 42 43 44 45 46 47 48 49 50
726
ASUS41 KOKX 240405
RWROKX

REGIONAL WEATHER ROUNDUP
NATIONAL WEATHER SERVICE NEW YORK NY
1200 AM EDT TUE MAY 24 2016

NOTE: "FAIR" INDICATES FEW OR NO CLOUDS BELOW 12,000 FEET WITH NO
SIGNIFICANT WEATHER AND/OR OBSTRUCTIONS TO VISIBILITY.

NYZ071-072-176-178-NJZ106-104-240500-
NEW YORK CITY METRO AREA


CITY           SKY/WX    TMP DP  RH WIND       PRES   REMARKS
CENTRAL PARK   CLOUDY    63  46  54 VRB6      29.95S
LAGUARDIA APRT CLOUDY    66  50  56 SW9       29.91F
KENNEDY INTL   LGT RAIN  63  48  58 W10       29.93F
NEWARK/LIBERTY CLOUDY    62  51  67 SE6       29.93R
BRNX BOT. GARD   N/A     64  45  48 NW2       29.94R
TETERBORO      MOCLDY    63  48  58 CALM      29.92R
$$

NYZ177-179-078>081-240500-
LONG ISLAND NEW YORK

CITY           SKY/WX    TMP DP  RH WIND       PRES   REMARKS
FARMINGDALE    CLOUDY    60  50  69 W5        29.93R
ISLIP          LGT RAIN  58  51  78 W8        29.91S
SHIRLEY        RAIN      58  53  84 W6        29.90F
RIVERHEAD        N/A     57  54  88 CALM      29.89F
WESTHAMPTON    RAIN      50  32  50 CALM      29.91F
EAST HAMPTON   LGT RAIN  55  54  96 N14       29.86F
MONTAUK POINT    N/A     55  54  96 NW5       29.89F
$$

NYZ052-065-067-240500-
HUDSON VALLEY

CITY           SKY/WX    TMP DP  RH WIND       PRES   REMARKS
WHITE PLAINS   LGT RAIN  61  46  57 W5        29.92S
NEWBURGH       MOCLDY    61  50  67 SE8       29.92F
MONTGOMERY     CLOUDY    61  54  77 CALM      29.90S
POUGHKEEPSIE   CLOUDY    64  50  60 CALM      29.91S
ALBANY         CLOUDY    63  43  48 NW6       29.90R
$$

NJZ001-105-106-008-010-013-015-019>022-104-240500-
NEW JERSEY

CITY           SKY/WX    TMP DP  RH WIND       PRES   REMARKS
NEWARK/LIBERTY CLOUDY    62  51  67 SE6       29.93R
TETERBORO      MOCLDY    63  48  58 CALM      29.92R
CALDWELL       CLOUDY    58  54  86 CALM      29.93S
MORRISTOWN     CLOUDY    57  55  94 CALM      29.92F
SOMERVILLE     CLOUDY    58  56  93 E5        29.92S
SUSSEX         CLOUDY    62  53  72 SW3       29.90F
ANDOVER          N/A     61  55  81 VRB5      29.91F
TRENTON        LGT RAIN  60  55  83 SW6       29.91F
MILLVILLE      CLOUDY    57  54  89 CALM      29.94R
ATLANTIC CITY  CLOUDY    56  53  90 SE3       29.93S
WRIGHTSTOWN    CLOUDY    57  52  83 SW6       29.91R
TOMS RIVER     CLOUDY    55  50  82 CALM      29.94R
BELMAR         MOCLDY    59  49  69 W5        29.94R
$$

PAZ047>061-062-071-240500-
EASTERN PENNSYLVANIA

CITY           SKY/WX    TMP DP  RH WIND       PRES   REMARKS
PHILADELPHIA   CLOUDY    60  52  74 S7        29.94S
ALLENTOWN      CLOUDY    58  52  80 SW6       29.90S
SCRANTON       PTCLDY    55  50  83 CALM      29.92R
$$

CTZ002-004>006-009-010-012-RIZ004-006-007-MAZ004-011-015-240500-
SOUTHERN NEW ENGLAND
 IN CT

CITY           SKY/WX    TMP DP  RH WIND       PRES   REMARKS
BRADLEY INTL   CLOUDY    65  47  52 S5        29.90S
HARTFORD       CLOUDY    65  50  58 S5        29.91R
DANBURY        LGT RAIN  59  49  69 CALM      29.93F
WTRBRY/OXFORD    N/A     59  46  63 CALM      29.94R
BRIDGEPORT     LGT RAIN  62  52  69 SW6       29.92R
MERIDEN        LGT RAIN  61  51  70 S5        29.92R
NEW HAVEN      LGT RAIN  59  53  80 CALM      29.91S
CHESTER        LGT RAIN  57  54  88 CALM      29.91F
GROTON         LGT RAIN  56  56 100 N6        29.89F
WILLIMANTIC    LGT RAIN  63  49  60 VRB3      29.91S

 IN RI

CITY           SKY/WX    TMP DP  RH WIND       PRES   REMARKS
PROVIDENCE     CLOUDY    63  51  65 N7        29.90S
BLOCK ISLAND   LGT RAIN  54  53  97 VRB3      29.89F
WESTERLY       LGT RAIN  57  53  86 CALM      29.90F

 IN MA

CITY           SKY/WX    TMP DP  RH WIND       PRES   REMARKS
BOSTON         CLOUDY    59  52  77 N7        29.92F
WORCESTER      LGT RAIN  61  45  55 N6        29.94R
WESTFIELD      CLOUDY    64  49  57 CALM      29.90F
PROVINCETOWN   CLEAR     53  51  93 NE8       29.90F
NANTUCKET      FOG       51  50  96 NE7       29.88R VSB 1
$$

ANZ330-335-338-340-345-350-353-355-240500-
COASTAL MARINE OBSERVATIONS


STATION/POSITION TIME  SKY/WX   TEMP    WIND        PRES    VSBY  WAVE
                                AIR SEA DIR/SP/G                  HT/PER
                 (UTC)          (F)     (DEG/KT/KT) (MB)    (MI)  (FT/S)
NY HARB ENTRANCE 0250            59 57  240/  8/ 10 1012.5          3/10
20S FIRE ISLAND  0250            58 57  300/  2/  4 1012.6          4/ 8
GREAT SOUTH BAY  0300            62 64  180/  4/  4   N/A
23 SSW MONTAUK P 0350            55 54  320/  8/ 10 1011.3          3/ 9
15 E BARNEGAT LI 0322               55                N/A           4/ 8
HUDSON CANYON    0250            53 52              1011.3          5/ 7
KINGS POINT      0300               57                N/A
EXECUTION ROCKS  NOT AVBL
CENTRAL LI SOUND 0300            59     180/  6/  8   N/A           0
EASTERN LI SOUND 0300            54 52  130/  4/  8   N/A
ROBBINS REEF     0312            62                 1012.8
$$


>>>>>>>>>>>>>>>>>>>>>>>>>>>> KEY <<<<<<<<<<<<<<<<<<<<<<<<<<<
>                                                          <
>     SKY/WX - SKY CONDITION/PRESENT WEATHER               <
>     TMP    - TEMPERATURE IN FAHRENHEIT                   <
>     DP     - DEWPOINT IN FAHRENHEIT                      <
>     RH     - RELATIVE HUMIDITY IN PERCENT                <
>     WIND   - DIRECTION AND SPEED IN MPH                  <
>     PRES   - MEAN SEA LEVEL PRESSURE IN INCHES OF HG     <
>     WCI    - WIND CHILL INDEX                            <
>     VSB    - VISIBILITY IN MILES                         <
>     HX     - HEAT INDEX                                  <
>     TC     - TEMPERATURE IN CELSIUS                      <
>     VRB    - VARIABLE WIND DIRECTION                     <
>                                                          <
>>>>>>>>>>>>>>>>>>>>>>>>>>>> KEY <<<<<<<<<<<<<<<<<<<<<<<<<<<






USA.gov is the U.S. government's official web portal to all federal, state and local government web resources and services.